Tracking 18851 objects as of 25-Nov-2017
HD Live streaming from Space Station
objects crossing your sky now

OSCAR 25

Track OSCAR 25 now!
10-day predictions
OSCAR 25 is classified as:


NORAD ID: 19419
Int'l Code: 1988-074A
Perigee: 1,036.5 km
Apogee: 1,180.1 km
Inclination: 90.0 °
Period: 107.3 minutes
Semi major axis: 7479 km
RCS: 1.4853 m2 (large)
Launch date: August 25, 1988
Source: United States (US)
Launch site: AIR FORCE WESTERN TEST RANGE (AFWTR)
aabbcc
Your satellite tracking list
Your tracking list is empty




NASA's NSSDC Master Catalog

Two Line Element Set (TLE):
1 19419U 88074A   17328.75965488  .00000055  00000-0  79407-4 0  9995
2 19419  89.9875  18.7477 0095961 351.5803 145.5096 13.42177429432268
Source of the keplerian elements: AFSPC